[[{"header":{"parameterUnit":"m.s-1","parameterCategory":1,"la1":30.2991,"la2":30.254,"lo1":-89.0895,"lo2":-89.0444,"dy":0.0017,"dx":0.0017,"nx":28,"ny":28,"refTime":"2024-06-09T03:00:00:Z","depth":0,"parameterNumber":2,"parameterNumberName":"U-component_of_WINDS"},"data":[0,0,0,0,0,0,0,0,0,0,0,0,0,0,0,0,0,0,0,0,0,0,0,0,0,0,0,0,0,0,0,0,0,0,0,0,0,0,0,0,0,0,0,0,0,0,0,0,0,0,0,0,0,0,0,0,0,0,0.6162,0.6163,0,0.63,0.6302,0.6304,0.6331,0.633,0.6329,0.6328,0.6475,0.648,0.6485,0,0,0,0,0,0,0,0,0,0,0,0,0,0.5924,0.5928,0.6161,0.6163,0.6165,0.63,0.6302,0.6304,0.6331,0.633,0.6329,0.6327,0.6474,0.6479,0.6485,0,0,0,0,0,0,0,0,0,0,0,0,0,0.6042,0.593,0.6161,0.6195,0.6199,0.63,0.6302,0.6304,0.6331,0.633,0.6328,0.6327,0.6472,0.6479,0.6486,0.6565,0,0,0.6509,0.6512,0,0,0,0,0,0,0,0,0.6035,0.605,0.6188,0.6193,0.6198,0.6297,0.6272,0.6392,0.6332,0.6281,0.6328,0.6326,0.6417,0.6429,0.6459,0.6572,0.6578,0.6509,0.6514,0.6517,0.6519,0,0,0,0,0,0,0,0.6027,0.6045,0.6217,0.619,0.6196,0.6204,0.6219,0.6295,0.6357,0.6286,0.6288,0.6304,0.642,0.6452,0.6463,0.658,0.6509,0.6516,0.652,0.6523,0.6764,0.6765,0,0,0,0,0,0,0.6012,0.6038,0.6212,0.6221,0.611,0.621,0.6226,0.6267,0.6356,0.6368,0.6305,0.6304,0.644,0.6454,0.6468,0.6565,0.6517,0.6524,0.6528,0.6762,0.6764,0.6766,0,0,0,0,0,0,0.6007,0.6027,0.6207,0.613,0.6153,0.6216,0.6261,0.627,0.6302,0.6371,0.6382,0.6326,0.6439,0.6458,0.654,0.6571,0.6527,0.6534,0.6759,0.6762,0.6765,0.6761,0,0,0,0,0,0,0.6,0.6025,0.6055,0.613,0.6157,0.6275,0.6262,0.6274,0.6314,0.6315,0.6394,0.6405,0.6439,0.6529,0.6547,0.658,0.654,0.6757,0.6761,0.6764,0.6758,0.6763,0.6767,0,0,0,0,0,0.5991,0.605,0.6056,0.6077,0.6195,0.6277,0.6292,0.6329,0.6317,0.6347,0.6391,0.6403,0.6564,0.6537,0.6558,0.6594,0.6755,0.676,0.6764,0.6756,0.6762,0.6767,0,0,0,0,0,0,0.5978,0.606,0.6068,0.6152,0.6207,0.6281,0.6321,0.6334,0.6395,0.6393,0.6437,0.6455,0.6535,0.6573,0.6541,0.6674,0.6659,0.6668,0.6646,0.6652,0.6656,0.6646,0.6546,0,0,0,0,0,0.5985,0.6043,0.6112,0.6179,0.6206,0.6259,0.6296,0.6319,0.6378,0.6402,0.6452,0.651,0.6574,0.6615,0.6678,0.6764,0.6781,0.6799,0.6803,0.6806,0.6813,0.6861,0.6869,0.678,0.678,0.678,0,0,0.6,0.6051,0.6086,0.6178,0.6223,0.6283,0.6278,0.6342,0.6387,0.6412,0.6492,0.6531,0.6599,0.6683,0.6723,0.6717,0.6842,0.6812,0.6814,0.6819,0.6866,0.6875,0.6882,0.6783,0.6783,0.6782,0,0,0.6057,0.6102,0.6163,0.6207,0.6275,0.6309,0.6324,0.6396,0.6422,0.6502,0.6522,0.6577,0.6686,0.6734,0.6772,0.6846,0.6858,0.6865,0.6888,0.6934,0.6941,0.6947,0.6973,0.6982,0.6872,0.6872,0.6872,0,0.6068,0.6157,0.6193,0.6255,0.6295,0.6318,0.638,0.6423,0.6508,0.6535,0.6528,0.6664,0.6712,0.6807,0.6824,0.6855,0.6873,0.6856,0.6936,0.6943,0.695,0.6975,0.6985,0.6872,0.6872,0.6872,0.6872,0,0.6166,0.6228,0.6269,0.6348,0.6393,0.6455,0.6501,0.6542,0.6561,0.6597,0.6679,0.6736,0.681,0.6835,0.6855,0.6933,0.6927,0.6927,0.6913,0.6958,0.6982,0.6992,0.6873,0.6873,0.6872,0.6872,0,0,0.622,0.6317,0.6331,0.6367,0.6443,0.6492,0.6555,0.6626,0.666,0.6718,0.6772,0.6863,0.6863,0.6907,0.6933,0.6973,0.7027,0.6968,0.6971,0.6977,0.7115,0.7114,0.7124,0.7035,0.7037,0.7039,0.7109,0,0.6286,0.6397,0.6431,0.6525,0.6583,0.6605,0.666,0.6713,0.6748,0.6802,0.6842,0.6905,0.6901,0.6927,0.6968,0.7011,0.7055,0.7007,0.7087,0.7089,0.7068,0.7137,0.7136,0.72,0.7119,0.712,0.7122,0,0.6378,0.6435,0.6534,0.6601,0.6627,0.6675,0.6742,0.6794,0.6855,0.6877,0.6924,0.6946,0.7014,0.6996,0.709,0.7056,0.7091,0.7117,0.7121,0.713,0.7108,0.7147,0.7221,0.723,0.7137,0.7136,0.7135,0,0.6406,0.6508,0.6581,0.6611,0.6691,0.6724,0.676,0.6819,0.6858,0.6917,0.6944,0.701,0.7047,0.7099,0.7138,0.7121,0.7229,0.7214,0.725,0.7249,0.7271,0.7269,0.7351,0.7294,0.7294,0.7294,0.7294,0,0.6477,0.6536,0.6594,0.6638,0.6706,0.6744,0.6811,0.6847,0.6899,0.6952,0.6976,0.7025,0.7075,0.7131,0.7162,0.7235,0.7252,0.7272,0.728,0.727,0.7267,0.7293,0.729,0.7297,0.7296,0.7295,0.7295,0,0.652,0.6561,0.6641,0.6709,0.6728,0.6775,0.6834,0.6879,0.6914,0.698,0.6998,0.7053,0.712,0.7165,0.7251,0.7272,0.7351,0.7358,0.733,0.7334,0.7366,0.7362,0.7468,0.7483,0.7416,0.7417,0.7417,0,0.6561,0.6607,0.668,0.6716,0.6751,0.6809,0.6849,0.6889,0.693,0.7001,0.7037,0.7105,0.7162,0.7268,0.7317,0.7383,0.7391,0.7424,0.7402,0.7389,0.7391,0.7388,0.7392,0.7427,0.7428,0.7428,0.7428,0,0.6631,0.6648,0.6704,0.6767,0.6814,0.6866,0.6918,0.6947,0.6996,0.7041,0.7108,0.7152,0.7238,0.7306,0.7376,0.7414,0.743,0.7435,0.7446,0.7436,0.7418,0.7428,0.7339,0.7432,0.7432,0.7432,0.7431,0.7431,0.6674,0.6716,0.6773,0.6834,0.6877,0.6925,0.697,0.7009,0.7066,0.7138,0.7159,0.7229,0.7288,0.7383,0.7422,0.7479,0.7475,0.7492,0.7497,0.75,0.75,0.7409,0.7492,0.7492,0.7492,0.7492,0.7492,0,0.6744,0.6782,0.6838,0.6909,0.6957,0.6966,0.7024,0.7064,0.7125,0.7178,0.7232,0.7309,0.7374,0.7428,0.7495,0.753,0.7539,0.7546,0.7544,0.7552,0.7499,0.7482,0.7538,0.7538,0.7538,0.7538,0.7538,0.7538,0.6786,0.6856,0.6881,0.6972,0.701,0.7078,0.711,0.7154,0.7197,0.7281,0.7334,0.7368,0.7421,0.7492,0.7553,0.7567,0.759,0.7596,0.7612,0.7561,0.7556,0.7551,0.7535,0.7601,0.7601,0.766,0.766,0.7661]},{"header":{"parameterUnit":"m.s-1","parameterCategory":1,"la1":30.2991,"la2":30.254,"lo1":-89.0895,"lo2":-89.0444,"dy":0.0017,"dx":0.0017,"nx":28,"ny":28,"refTime":"2024-06-09T03:00:00:Z","depth":0,"parameterNumber":3,"parameterNumberName":"V-component_of_WINDS"},"data":[0,0,0,0,0,0,0,0,0,0,0,0,0,0,0,0,0,0,0,0,0,0,0,0,0,0,0,0,0,0,0,0,0,0,0,0,0,0,0,0,0,0,0,0,0,0,0,0,0,0,0,0,0,0,0,0,0,0,2.9269,2.9269,0,2.9231,2.923,2.923,2.9213,2.9213,2.9213,2.9213,2.9171,2.917,2.9169,0,0,0,0,0,0,0,0,0,0,0,0,0,2.9324,2.9323,2.927,2.9269,2.9269,2.9231,2.923,2.923,2.9213,2.9213,2.9213,2.9213,2.9171,2.917,2.9169,0,0,0,0,0,0,0,0,0,0,0,0,0,2.9295,2.9323,2.927,2.9256,2.9254,2.9231,2.923,2.923,2.9213,2.9213,2.9213,2.9213,2.9172,2.917,2.9168,2.9156,0,0,2.9163,2.9162,0,0,0,0,0,0,0,0,2.9296,2.9293,2.9258,2.9257,2.9255,2.9227,2.9234,2.9205,2.9213,2.9228,2.9213,2.9213,2.9189,2.9186,2.9179,2.9154,2.9152,2.9163,2.9162,2.9161,2.9161,0,0,0,0,0,0,0,2.9298,2.9294,2.9254,2.9258,2.9256,2.925,2.9246,2.9229,2.9209,2.9227,2.9226,2.9222,2.9188,2.918,2.9177,2.9151,2.9163,2.9161,2.916,2.916,2.911,2.911,0,0,0,0,0,0,2.9303,2.9296,2.9255,2.9253,2.9276,2.9249,2.9244,2.9236,2.9209,2.9205,2.9221,2.9221,2.9183,2.918,2.9176,2.9157,2.9161,2.9159,2.9158,2.911,2.911,2.911,0,0,0,0,0,0,2.9304,2.93,2.9257,2.9274,2.9268,2.9248,2.9238,2.9235,2.9227,2.9205,2.9201,2.9217,2.9183,2.9178,2.916,2.9155,2.9159,2.9157,2.9111,2.911,2.911,2.9121,0,0,0,0,0,0,2.9306,2.93,2.9297,2.9274,2.9267,2.9243,2.9238,2.9234,2.9224,2.9223,2.92,2.9196,2.9183,2.9163,2.9158,2.9153,2.9156,2.9111,2.9111,2.911,2.9121,2.9121,2.9121,0,0,0,0,0,2.9308,2.9301,2.9296,2.9292,2.9262,2.9243,2.9239,2.9225,2.9224,2.9219,2.9204,2.9197,2.9157,2.9161,2.9156,2.915,2.9111,2.9111,2.911,2.9121,2.9121,2.9121,0,0,0,0,0,0,2.9323,2.9298,2.9293,2.9279,2.9263,2.924,2.9234,2.9226,2.921,2.921,2.9192,2.9187,2.917,2.9158,2.9163,2.9134,2.9133,2.9132,2.9143,2.9143,2.9143,2.9146,2.9154,0,0,0,0,0,2.9325,2.9313,2.9291,2.9281,2.9273,2.9255,2.9246,2.9236,2.9219,2.9213,2.9197,2.9179,2.9163,2.9152,2.9136,2.9119,2.9112,2.9112,2.9112,2.9112,2.9111,2.9097,2.9096,2.9108,2.9108,2.9108,0,0,2.9329,2.9313,2.9307,2.9283,2.927,2.9256,2.925,2.9236,2.9224,2.921,2.9192,2.9179,2.9158,2.914,2.9131,2.913,2.9106,2.9111,2.9112,2.911,2.9097,2.9096,2.9095,2.9108,2.9108,2.9108,0,0,2.9328,2.9316,2.9305,2.9291,2.9271,2.9259,2.9256,2.9234,2.9225,2.9206,2.9194,2.918,2.9153,2.9137,2.9126,2.9116,2.9108,2.9111,2.9111,2.9099,2.9098,2.9097,2.9091,2.909,2.911,2.911,2.911,0,2.9334,2.9314,2.93,2.9286,2.9275,2.9261,2.9248,2.9236,2.9211,2.9203,2.9202,2.9165,2.915,2.9127,2.9124,2.9116,2.911,2.9114,2.9099,2.9098,2.9097,2.9091,2.9089,2.911,2.911,2.911,2.911,0,2.9322,2.9308,2.9301,2.9277,2.9266,2.9252,2.9234,2.9223,2.9214,2.9201,2.918,2.9162,2.914,2.9134,2.9125,2.9108,2.9107,2.9103,2.9101,2.9097,2.9091,2.9089,2.9111,2.9111,2.9111,2.9111,0,0,2.9331,2.9298,2.9296,2.9284,2.926,2.9248,2.9232,2.9212,2.9202,2.9184,2.917,2.9145,2.914,2.9127,2.9116,2.9105,2.9095,2.9102,2.9101,2.91,2.9072,2.9075,2.9072,2.9089,2.9089,2.9089,2.9073,0,2.9325,2.9299,2.9284,2.9263,2.9248,2.9234,2.922,2.9202,2.9189,2.9173,2.9158,2.914,2.9136,2.9127,2.9116,2.9099,2.9089,2.91,2.9073,2.9073,2.9078,2.907,2.9073,2.9059,2.9071,2.9071,2.907,0,2.9316,2.9299,2.9276,2.9251,2.9245,2.9233,2.9211,2.9196,2.9175,2.9166,2.915,2.9138,2.9119,2.9119,2.909,2.9098,2.9086,2.9075,2.9074,2.907,2.9071,2.9064,2.9055,2.9052,2.9067,2.9067,2.9068,0,2.9322,2.9294,2.9276,2.9266,2.9237,2.9229,2.9216,2.9195,2.9182,2.9162,2.9153,2.9132,2.9119,2.9101,2.9083,2.9085,2.9055,2.9054,2.9045,2.9045,2.9039,2.904,2.9027,2.9034,2.9034,2.9034,2.9034,0,2.9317,2.9304,2.9278,2.9267,2.925,2.9232,2.9215,2.9201,2.9182,2.9166,2.9152,2.9137,2.9114,2.9095,2.9081,2.9058,2.9053,2.9043,2.9039,2.9044,2.9045,2.9035,2.9035,2.9033,2.9033,2.9033,2.9033,0,2.9322,2.9305,2.9284,2.9257,2.925,2.9239,2.9215,2.9202,2.9188,2.9167,2.9161,2.9137,2.9114,2.9094,2.9064,2.9054,2.9029,2.9026,2.9037,2.9035,2.9026,2.9026,2.9005,2.9,2.9012,2.9012,2.9012,0,2.932,2.9309,2.9281,2.9269,2.9257,2.9239,2.9226,2.9207,2.9193,2.9166,2.9156,2.9132,2.9112,2.9075,2.9054,2.9029,2.9024,2.9018,2.902,2.9024,2.9021,2.9021,2.9019,2.9017,2.9017,2.9017,2.9017,0,2.9317,2.9308,2.929,2.9268,2.9253,2.9234,2.9216,2.9207,2.9183,2.9168,2.9145,2.9129,2.9097,2.9072,2.9045,2.903,2.9018,2.9017,2.9013,2.9017,2.9023,2.9018,2.9035,2.9017,2.9017,2.9017,2.9017,2.9017,2.9316,2.9305,2.9283,2.9262,2.9246,2.9228,2.9214,2.9197,2.9177,2.915,2.914,2.9115,2.909,2.9053,2.9037,2.9015,2.9014,2.9009,2.9007,2.9006,2.9005,2.9028,2.901,2.901,2.901,2.901,2.901,0,2.9311,2.9296,2.9277,2.9251,2.9234,2.9226,2.9204,2.9189,2.9168,2.9147,2.9127,2.9098,2.9073,2.9048,2.9022,2.9009,2.9003,2.9002,2.9002,2.8998,2.901,2.9015,2.9007,2.9007,2.9007,2.9007,2.9007,2.9007,2.9306,2.9286,2.9274,2.9243,2.9228,2.9204,2.9192,2.9174,2.9156,2.9125,2.9104,2.9089,2.9065,2.9036,2.9011,2.9004,2.8994,2.8995,2.8986,2.8997,2.8998,2.8998,2.9003,2.8993,2.8993,2.8976,2.8976,2.8976]}]]